This is the latest recevied weather packets stored in our database for station/object DJ0JJ-11. If no packets are shown the sender has not sent any weather packets the latest 10 day(s).
| Time | Temp. | Humidity | Pressure | Rain* | Wind** | Luminosity | Snow |
|---|---|---|---|---|---|---|---|
| 1777593505 | 11.11° C | 41% | 1026.3 hPa | - | - | - | - |
| 1777592605 | 11.11° C | 41% | 1026.5 hPa | - | - | - | - |
| 1777591705 | 11.11° C | 40% | 1026.5 hPa | - | - | - | - |
| 1777590805 | 11.11° C | 40% | 1026.4 hPa | - | - | - | - |
| 1777589905 | 11.67° C | 37% | 1026.3 hPa | - | - | - | - |
| 1777589004 | 11.67° C | 35% | 1026.3 hPa | - | - | - | - |
| 1777588104 | 12.78° C | 30% | 1026 hPa | - | - | - | - |
| 1777587203 | 12.78° C | 30% | 1026 hPa | - | - | - | - |
| 1777586303 | 12.78° C | 29% | 1025.9 hPa | - | - | - | - |
| 1777585403 | 13.33° C | 28% | 1025.9 hPa | - | - | - | - |
| 1777584503 | 13.33° C | 29% | 1025.8 hPa | - | - | - | - |
| 1777583603 | 13.33° C | 28% | 1025.8 hPa | - | - | - | - |
| 1777582703 | 13.33° C | 28% | 1025.7 hPa | - | - | - | - |
| 1777581802 | 13.89° C | 27% | 1025.7 hPa | - | - | - | - |
| 1777580902 | 13.89° C | 26% | 1025.5 hPa | - | - | - | - |
| 1777580002 | 13.89° C | 28% | 1025.3 hPa | - | - | - | - |
| 1777579102 | 14.44° C | 26% | 1025.4 hPa | - | - | - | - |
| 1777578202 | 15° C | 24% | 1025.3 hPa | - | - | - | - |
| 1777577302 | 15° C | 25% | 1025.3 hPa | - | - | - | - |
| 1777576401 | 15° C | 25% | 1025.1 hPa | - | - | - | - |
| 1777575501 | 15.56° C | 24% | 1024.9 hPa | - | - | - | - |
| 1777574601 | 16.11° C | 24% | 1024.8 hPa | - | - | - | - |
| 1777573701 | 16.11° C | 24% | 1024.6 hPa | - | - | - | - |
| 1777572801 | 16.67° C | 23% | 1024.3 hPa | - | - | - | - |
| 1777571001 | 18.89° C | 21% | 1024.3 hPa | - | - | - | - |
* Rain since midnight (hover to see other rain measurements)
** Current wind speed in m/s (hover to see current wind gust speed)